Weather History for McGuire AFB, NJ

Change the Weather History Date:

Monday, February 11, 2013

  Actual Average Record
Temperature  
Mean Temperature 43 °F -  
Max Temperature 54 °F 41 °F 69 °F (2009)
Min Temperature 32 °F 23 °F 9 °F (2014)
Degree Days  
Heating Degree Days 22    
Moisture  
Dew Point 45 °F    
Average Humidity 94    
Maximum Humidity 100    
Minimum Humidity 76    
Precipitation  
Precipitation 0.28 in - - ()
Sea Level Pressure  
Sea Level Pressure 29.86 in    
Wind  
Wind Speed 8 mph (SW)    
Max Wind Speed 17 mph    
Max Gust Speed 25 mph    
Visibility 8 miles    
Events Rain    
Averages and records for this station are not official NWS values.
T = Trace of Precipitation, MM = Missing Value Source: NWS Daily Summary

Daily Weather History Graph

Daily Weather History Graph

Search for Another Location

Airport:

Trip Planner

Search our weather history database for the weather conditions in past years. The results will help you decide how hot, cold, wet, or windy it might be!

Date:

Astronomy

Feb. 11, 2013 Rise Set
Actual Time 6:55 AM EST 5:29 PM EST
Civil Twilight 6:27 AM EST 5:57 PM EST
Nautical Twilight 5:56 AM EST 6:29 PM EST
Astronomical Twilight 5:24 AM EST 7:01 PM EST
Moon 7:19 AM EST (2/11) 7:23 PM EST (2/11)
Length of Visible Light 11h 29m
Length of Day
10h 33m
Waxing Crescent, 3% of the Moon is Illuminated
Feb 11
Waxing Crescent
Feb 17
First Quarter
Feb 25
Full
Mar 4
Last Quarter
Mar 11
New

Hourly Weather History & Observations

Time (EST) Temp. Windchill Dew Point Humidity Pressure Visibility Wind Dir Wind Speed Gust Speed Precip Events Conditions
12:55 AM 32.0 °F 26.4 °F 25.9 °F 78% 30.29 in 10.0 mi SE 5.8 mph - N/A   Overcast
1:55 AM 32.9 °F 29.8 °F 27.7 °F 81% 30.26 in 10.0 mi SE 3.5 mph - N/A   Scattered Clouds
2:55 AM 34.7 °F 28.1 °F 30.4 °F 84% 30.23 in 10.0 mi SE 8.1 mph - N/A   Overcast
3:55 AM 36.1 °F 31.4 °F 32.0 °F 85% 30.19 in 10.0 mi SSE 5.8 mph - N/A   Overcast
4:24 AM 37.4 °F 32.1 °F 32.0 °F 81% 30.17 in 10.0 mi SE 6.9 mph - N/A   Overcast
4:55 AM 36.9 °F 30.7 °F 34.3 °F 91% 30.16 in 10.0 mi SSE 8.1 mph - 0.01 in Rain Light Rain
5:03 AM 37.4 °F 30.8 °F 33.8 °F 87% 30.16 in 10.0 mi South 9.2 mph - N/A Rain Light Rain
5:08 AM 37.4 °F 31.4 °F 35.6 °F 93% 30.16 in 10.0 mi SSE 8.1 mph - N/A Rain Light Rain
5:15 AM 37.4 °F 32.1 °F 35.6 °F 93% 30.14 in 10.0 mi SSE 6.9 mph - N/A   Overcast
5:17 AM 37.4 °F 32.1 °F 35.6 °F 93% 30.14 in 10.0 mi SE 6.9 mph - N/A   Overcast
5:26 AM 37.4 °F 33.8 °F 35.6 °F 93% 30.13 in 10.0 mi SE 4.6 mph - N/A   Overcast
5:35 AM 37.4 °F 33.8 °F 35.6 °F 93% 30.13 in 10.0 mi SE 4.6 mph - N/A   Overcast
5:44 AM 37.4 °F 34.9 °F 35.6 °F 93% 30.12 in 10.0 mi ESE 3.5 mph - N/A Rain Light Rain
5:55 AM 37.0 °F 33.3 °F 35.2 °F 93% 30.11 in 9.0 mi ESE 4.6 mph - 0.01 in Rain Light Rain
6:19 AM 37.4 °F 32.8 °F 35.6 °F 93% 30.08 in 8.0 mi ESE 5.8 mph - N/A Rain Light Rain
6:21 AM 37.4 °F 32.8 °F 35.6 °F 93% 30.09 in 8.0 mi SE 5.8 mph - N/A Rain Light Rain
6:38 AM 39.2 °F 33.6 °F 37.4 °F 93% 30.07 in 8.0 mi SE 8.1 mph - N/A Rain Light Rain
6:42 AM 39.2 °F 34.2 °F 37.4 °F 93% 30.06 in 7.0 mi SE 6.9 mph - N/A Rain Light Rain
6:46 AM 39.2 °F 32.5 °F 37.4 °F 93% 30.06 in 7.0 mi SE 10.4 mph - N/A Rain Light Rain
6:48 AM 39.2 °F 33.0 °F 37.4 °F 93% 30.06 in 8.0 mi SE 9.2 mph - N/A Rain Light Rain
6:55 AM 39.7 °F 32.7 °F 38.7 °F 96% 30.05 in 9.0 mi SE 11.5 mph - 0.04 in Rain Light Rain
6:59 AM 41.0 °F 34.7 °F 39.2 °F 93% 30.05 in 8.0 mi SE 10.4 mph - N/A Rain Light Rain
7:07 AM 41.0 °F 33.9 °F 39.2 °F 93% 30.04 in 8.0 mi SE 12.7 mph 19.6 mph N/A Rain Light Rain
7:28 AM 41.0 °F 33.1 °F 41.0 °F 100% 30.03 in 9.0 mi SSE 15.0 mph - N/A Rain Light Rain
7:55 AM 43.5 °F 36.1 °F 43.0 °F 98% 30.01 in 6.0 mi SSE 16.1 mph 21.9 mph 0.08 in   Overcast
8:10 AM 44.6 °F 37.8 °F 44.6 °F 100% 30.00 in 10.0 mi SSE 15.0 mph 24.2 mph N/A Rain Light Rain
8:55 AM 47.3 °F - 46.8 °F 98% 29.98 in 6.0 mi SSW 11.5 mph 20.7 mph 0.04 in Rain Light Rain
9:02 AM 48.2 °F - 46.4 °F 93% 29.99 in 8.0 mi SW 13.8 mph - N/A Rain Light Rain
9:13 AM 48.2 °F - 48.2 °F 100% 29.99 in 4.0 mi SW 15.0 mph 24.2 mph N/A Rain Light Rain
9:21 AM 48.2 °F - 46.4 °F 93% 29.99 in 3.0 mi SW 13.8 mph - N/A Rain Rain
9:55 AM 47.5 °F - 46.9 °F 98% 29.97 in 7.0 mi SW 8.1 mph - 0.08 in Rain Light Rain
10:47 AM 42.8 °F 39.3 °F 42.8 °F 100% 29.95 in 3.0 mi West 5.8 mph - N/A   Overcast
10:55 AM 42.8 °F 40.1 °F 42.4 °F 99% 29.95 in 4.0 mi WNW 4.6 mph - 0.02 in   Overcast
11:12 AM 42.8 °F 38.0 °F 42.8 °F 100% 29.94 in 2.5 mi NW 8.1 mph - N/A   Overcast
11:15 AM 42.8 °F 38.0 °F 42.8 °F 100% 29.93 in 3.0 mi WNW 8.1 mph - N/A   Overcast
11:31 AM 42.8 °F 40.1 °F 42.8 °F 100% 29.92 in 3.0 mi WNW 4.6 mph - N/A   Overcast
11:47 AM 42.8 °F 40.1 °F 41.0 °F 93% 29.92 in 3.0 mi NW 4.6 mph - N/A   Overcast
11:52 AM 41.0 °F 39.0 °F 41.0 °F 100% 29.91 in 3.0 mi NNW 3.5 mph - N/A   Overcast
11:53 AM 41.0 °F 39.0 °F 41.0 °F 100% 29.91 in 3.0 mi North 3.5 mph - N/A   Overcast
11:55 AM 41.4 °F 39.4 °F 41.2 °F 99% 29.91 in 3.0 mi North 3.5 mph - 0.00 in   Overcast
12:08 PM 41.0 °F - 41.0 °F 100% 29.90 in 3.0 mi Calm Calm - N/A   Overcast
12:15 PM 41.0 °F 39.0 °F 41.0 °F 100% 29.89 in 2.5 mi WNW 3.5 mph - N/A   Overcast
12:19 PM 41.0 °F - 41.0 °F 100% 29.89 in 3.0 mi Calm Calm - N/A   Overcast
12:22 PM 41.0 °F - 41.0 °F 100% 29.88 in 2.5 mi Calm Calm - N/A   Overcast
12:27 PM 41.0 °F - 41.0 °F 100% 29.88 in 2.5 mi Calm Calm - N/A   Overcast
12:39 PM 42.8 °F - 41.0 °F 93% 29.86 in 2.0 mi Calm Calm - N/A   Overcast
12:55 PM 43.2 °F - 42.8 °F 99% 29.85 in 2.5 mi Calm Calm - 0.00 in   Overcast
12:57 PM 42.8 °F - 42.8 °F 100% 29.85 in 3.0 mi Calm Calm - N/A   Overcast
1:03 PM 42.8 °F - 42.8 °F 100% 29.83 in 2.5 mi Calm Calm - N/A   Overcast
1:55 PM 45.5 °F - 45.3 °F 99% 29.81 in 2.5 mi Calm Calm - N/A   Overcast
2:28 PM 48.2 °F - 48.2 °F 100% 29.78 in 3.0 mi WSW 4.6 mph - N/A   Overcast
2:36 PM 48.2 °F - 48.2 °F 100% 29.79 in 4.0 mi West 5.8 mph - N/A   Light Drizzle
2:46 PM 50.0 °F - 50.0 °F 100% 29.78 in 4.0 mi SW 8.1 mph - N/A   Light Drizzle
2:55 PM 50.2 °F - 50.0 °F 99% 29.78 in 6.0 mi SW 10.4 mph - 0.00 in   Light Drizzle
3:21 PM 51.8 °F - 51.8 °F 100% 29.75 in 9.0 mi SW 11.5 mph - N/A   Light Drizzle
3:42 PM 51.8 °F - 51.8 °F 100% 29.74 in 10.0 mi SW 13.8 mph - N/A   Overcast
3:48 PM 51.8 °F - 51.8 °F 100% 29.73 in 10.0 mi SW 13.8 mph - N/A   Overcast
3:55 PM 52.7 °F - 52.5 °F 99% 29.73 in 10.0 mi SW 15.0 mph - 0.00 in   Overcast
4:01 PM 53.6 °F - 51.8 °F 94% 29.73 in 10.0 mi SW 17.3 mph - N/A   Light Drizzle
4:13 PM 53.6 °F - 53.6 °F 100% 29.73 in 10.0 mi SW 15.0 mph - N/A   Light Drizzle
4:24 PM 53.6 °F - 53.6 °F 100% 29.73 in 10.0 mi SW 16.1 mph - N/A   Overcast
4:43 PM 53.6 °F - 53.6 °F 100% 29.72 in 10.0 mi SW 15.0 mph - N/A   Light Drizzle
4:55 PM 53.6 °F - 52.7 °F 97% 29.71 in 10.0 mi SW 17.3 mph 25.3 mph 0.00 in   Light Drizzle
5:55 PM 54.0 °F - 52.3 °F 94% 29.69 in 10.0 mi SW 16.1 mph - 0.00 in   Overcast
5:59 PM 53.6 °F - 51.8 °F 94% 29.69 in 10.0 mi SW 15.0 mph - N/A   Overcast
6:20 PM 53.6 °F - 51.8 °F 94% 29.68 in 10.0 mi SW 13.8 mph - N/A   Light Drizzle
6:30 PM 53.6 °F - 51.8 °F 94% 29.68 in 10.0 mi SW 12.7 mph - N/A   Light Drizzle
6:34 PM 53.6 °F - 51.8 °F 94% 29.68 in 10.0 mi SW 15.0 mph - N/A   Overcast
6:52 PM 53.6 °F - 51.8 °F 94% 29.67 in 10.0 mi SW 13.8 mph - N/A   Light Drizzle
6:55 PM 53.8 °F - 51.8 °F 93% 29.66 in 10.0 mi SW 17.3 mph - 0.00 in   Light Drizzle
7:03 PM 53.6 °F - 51.8 °F 94% 29.66 in 10.0 mi SW 11.5 mph - N/A   Mostly Cloudy
7:05 PM 53.6 °F - 51.8 °F 94% 29.66 in 10.0 mi SW 12.7 mph - N/A   Light Drizzle
7:11 PM 53.6 °F - 51.8 °F 94% 29.66 in 10.0 mi SW 15.0 mph - N/A   Mostly Cloudy
7:12 PM 53.6 °F - 51.8 °F 94% 29.66 in 10.0 mi SW 16.1 mph 21.9 mph N/A   Light Drizzle
7:55 PM 53.2 °F - 51.6 °F 94% 29.66 in 10.0 mi SW 13.8 mph - 0.00 in   Light Drizzle
8:10 PM 53.6 °F - 51.8 °F 94% 29.65 in 10.0 mi WSW 13.8 mph - N/A   Light Drizzle
8:55 PM 52.9 °F - 51.3 °F 94% 29.65 in 10.0 mi WSW 10.4 mph - 0.00 in   Light Drizzle
9:05 PM 51.8 °F - 50.0 °F 94% 29.65 in 10.0 mi WSW 11.5 mph - N/A   Overcast
9:11 PM 51.8 °F - 50.0 °F 94% 29.65 in 10.0 mi WSW 10.4 mph - N/A   Light Drizzle
9:30 PM 51.8 °F - 50.0 °F 94% 29.66 in 10.0 mi West 10.4 mph - N/A   Light Drizzle
9:47 PM 51.8 °F - 50.0 °F 94% 29.67 in 10.0 mi West 11.5 mph - N/A   Light Drizzle
9:49 PM 51.8 °F - 50.0 °F 94% 29.67 in 10.0 mi West 15.0 mph - N/A   Light Drizzle
9:55 PM 51.3 °F - 50.4 °F 97% 29.68 in 9.0 mi West 12.7 mph - 0.00 in   Light Drizzle
10:01 PM 51.8 °F - 50.0 °F 94% 29.68 in 9.0 mi West 10.4 mph - N/A   Light Drizzle
10:04 PM 51.8 °F - 50.0 °F 94% 29.68 in 9.0 mi West 9.2 mph - N/A   Light Drizzle
10:06 PM 51.8 °F - 50.0 °F 94% 29.68 in 10.0 mi West 11.5 mph - N/A   Light Drizzle
10:12 PM 51.8 °F - 50.0 °F 94% 29.68 in 10.0 mi West 11.5 mph 19.6 mph N/A   Light Drizzle
10:18 PM 51.8 °F - 50.0 °F 94% 29.70 in 10.0 mi WNW 12.7 mph 20.7 mph N/A   Overcast
10:21 PM 51.8 °F - 50.0 °F 94% 29.70 in 10.0 mi WNW 13.8 mph 20.7 mph N/A   Light Drizzle
10:32 PM 50.0 °F - 50.0 °F 100% 29.70 in 10.0 mi WNW 11.5 mph - N/A   Overcast
10:52 PM 50.0 °F - 48.2 °F 94% 29.72 in 10.0 mi WNW 11.5 mph - N/A   Overcast
10:53 PM 50.0 °F - 48.2 °F 94% 29.72 in 10.0 mi WNW 12.7 mph - N/A   Overcast
10:55 PM 49.5 °F - 48.4 °F 96% 29.72 in 10.0 mi WNW 13.8 mph 20.7 mph 0.00 in   Overcast
10:56 PM 50.0 °F - 48.2 °F 94% 29.72 in 10.0 mi NW 16.1 mph 20.7 mph N/A   Overcast
10:57 PM 50.0 °F - 48.2 °F 94% 29.72 in 10.0 mi NW 15.0 mph 20.7 mph N/A   Mostly Cloudy
10:58 PM 50.0 °F - 48.2 °F 94% 29.72 in 10.0 mi NW 12.7 mph 20.7 mph N/A   Mostly Cloudy
11:03 PM 48.2 °F - 46.4 °F 93% 29.72 in 10.0 mi WNW 12.7 mph 20.7 mph N/A   Light Drizzle
11:05 PM 48.2 °F - 46.4 °F 93% 29.72 in 10.0 mi WNW 13.8 mph 20.7 mph N/A   Light Drizzle
11:15 PM 48.2 °F - 42.8 °F 82% 29.73 in 10.0 mi WNW 15.0 mph 21.9 mph N/A   Light Drizzle
11:23 PM 48.2 °F - 41.0 °F 76% 29.73 in 10.0 mi NW 11.5 mph - N/A   Clear
11:29 PM 48.2 °F - 41.0 °F 76% 29.73 in 10.0 mi NW 9.2 mph 18.4 mph N/A   Light Drizzle
11:45 PM 46.4 °F 41.9 °F 41.0 °F 81% 29.74 in 10.0 mi NW 9.2 mph - N/A   Clear
11:52 PM 44.6 °F 40.2 °F 41.0 °F 87% 29.75 in 10.0 mi NW 8.1 mph - N/A   Light Drizzle
11:55 PM 45.3 °F 40.6 °F 40.5 °F 83% 29.75 in 10.0 mi NW 9.2 mph - 0.00 in   Light Drizzle